Terminal Aerodrome Forecast
Issued by NWS Boston, MA

Home | Current Version | Previous Version | Text Only | Print | Product List | Glossary On
Versions: 1 2 3 4 5 6 7 8 9 10 11 12 13 14 15 16 17 18 19 20 21 22 23 24 25 26 27 28 29 30 31 32 33 34 35 36 37 38 39 40 41 42 43 44 45 46 47
000
FTUS41 KBOX 030835 AAA
TAFPVD
TAF AMD
KPVD 030835Z 0309/0406 18006KT P6SM FEW007
      TEMPO 0310/0313 P6SM BKN007
     FM031300 21007KT P6SM SCT009
     FM031800 20011G21KT P6SM FEW250
     FM040000 20009KT P6SM BKN008=

USA.gov is the U.S. government's official web portal to all federal, state and local government web resources and services.